Content
SEND FEEDBACK

Daily
Averages
Monthly
Summary
United States of America

YUTAN, NEBRASKA


Home > North America > United States > Nebraska
Elevation: 1180 feet     Latitude: 41 10N     Longitude: 096 25W

WEATHER
 
SELECT A DAY
Number of Records: 77,418;   Date Range: 5/17/11 - 8/20/14
 
SHARE

PRINT THIS DATA

[ ← Previous Day ]
WEATHER ALMANAC - FEBRUARY 13, 2013
[ Next Day → ]
[ °C ]   °F
Weather ElementAverageHighLow
Temperature39.6 °F54.3 °F (3:15 pm)27.5 °F (5:55 am)
Dewpoint26.8 °F30.7 °F (11:15 am)23 °F (1:55 am)
Humidity63.3 %86 % (5:55 am)35 % (3:15 pm)
Barometer29.81 in29.90 in (12:35 am)29.72 in (4:35 pm)
Wind Speed8.3 mph16.1 mph (3:35 pm)
Wind Gust20.7 mph (2:35 pm)
Weather ElementAverage
Visibility10 mi
Wind DirectionWSW (236.1 °)

Weather ElementTotal
Precipitation0.01 in
Heating Degree Days24.1 (Base 65)
Averaged from 71 records on February 13, 2013
WEATHER CONDITIONS BREAKOUT
WIND DIRECTION BREAKOUT
WEATHER BY HOUR - FEBRUARY 13, 2013
[ °C ]   °F
Local TimeTemperatureDewpointHumidityBarometerVisibilityWind DirectionWind SpeedGust SpeedPrecipitationEventsConditions
12:35 AM30.2 °F23.7 °F77 %29.90 in10.0 miWest (260°)6.9 mphClear
12:55 AM30.0 °F23.7 °F77 %29.90 in10.0 miWSW (250°)4.6 mphClear
1:15 AM29.3 °F23.2 °F78 %29.90 in10.0 miWSW (250°)3.5 mphClear
1:35 AM29.3 °F23.4 °F78 %29.90 in10.0 miCalmClear
1:55 AM28.9 °F23.0 °F78 %29.90 in10.0 miWest (260°)3.5 mphClear
2:15 AM28.6 °F23.0 °F80 %29.90 in10.0 miCalmClear
2:35 AM28.6 °F23.4 °F81 %29.89 in10.0 miWSW (250°)4.6 mphClear
2:55 AM28.4 °F23.4 °F81 %29.89 in10.0 miWest (260°)4.6 mphClear
3:15 AM29.1 °F23.5 °F80 %29.88 in10.0 miWSW (250°)6.9 mphClear
3:35 AM28.8 °F23.5 °F81 %29.88 in10.0 miWest (260°)5.8 mphClear
3:55 AM28.2 °F23.2 °F81 %29.87 in10.0 miWSW (240°)3.5 mphClear
4:15 AM28.9 °F23.7 °F81 %29.87 in10.0 miWest (260°)6.9 mphClear
4:35 AM28.2 °F23.4 °F82 %29.86 in10.0 miWSW (250°)4.6 mphClear
4:55 AM28.2 °F23.5 °F83 %29.85 in10.0 miWest (260°)5.8 mphClear
5:15 AM28.0 °F23.4 °F83 %29.85 in10.0 miWest (260°)4.6 mphClear
5:35 AM28.0 °F23.5 °F83 %29.85 in10.0 miWest (260°)5.8 mphClear
5:55 AM27.5 °F23.7 °F86 %29.85 in10.0 miWest (260°)8.1 mphClear
6:15 AM28.4 °F23.9 °F83 %29.85 in10.0 miWest (260°)4.6 mphClear
6:35 AM28.0 °F23.7 °F84 %29.85 in10.0 miWest (260°)5.8 mphClear
6:55 AM28.8 °F23.9 °F82 %29.85 in10.0 miWest (260°)5.8 mphClear
7:15 AM28.0 °F23.7 °F84 %29.85 in10.0 miWest (270°)4.6 mphClear
7:35 AM28.8 °F24.3 °F83 %29.85 in10.0 miWest (260°)4.6 mphClear
7:55 AM29.7 °F25.2 °F83 %29.85 in10.0 miWSW (240°)3.5 mphClear
8:15 AM30.2 °F25.3 °F82 %29.85 in10.0 miCalmClear
8:35 AM31.1 °F25.5 °F80 %29.86 in10.0 miWest (260°)3.5 mphClear
8:55 AM31.1 °F25.7 °F80 %29.86 in10.0 miWSW (250°)4.6 mphClear
9:15 AM32.0 °F26.4 °F80 %29.86 in10.0 miCalmClear
9:35 AM34.3 °F27.9 °F77 %29.85 in10.0 miWest (260°)9.2 mphClear
9:55 AM36.0 °F28.6 °F75 %29.84 in10.0 miWSW (240°)6.9 mphClear
10:15 AM38.3 °F28.9 °F69 %29.84 in10.0 miCalmClear
10:35 AM39.9 °F29.8 °F67 %29.83 in10.0 miSW (220°)4.6 mphClear
10:55 AM42.1 °F30.0 °F62 %29.83 in10.0 miWSW (240°)5.8 mphClear
11:15 AM45.1 °F30.7 °F57 %29.83 in10.0 miWSW (240°)8.1 mphClear
11:35 AM47.3 °F30.0 °F51 %29.83 in10.0 miWSW (250°)10.4 mphClear
11:55 AM48.4 °F30.0 °F49 %29.81 in10.0 miSW (230°)10.4 mph0.01 inClear
12:15 PM49.5 °F29.5 °F46 %29.80 in10.0 miSW (230°)12.7 mph16.1 mphClear
12:35 PM50.5 °F29.1 °F44 %29.80 in10.0 miWSW (240°)12.7 mphClear
12:55 PM51.3 °F28.9 °F42 %29.79 in10.0 miSW (220°)11.5 mphClear
1:15 PM52.2 °F28.9 °F41 %29.78 in10.0 miWSW (250°)11.5 mph16.1 mphClear
1:35 PM52.5 °F28.2 °F39 %29.77 in10.0 miWSW (250°)10.4 mphClear
1:55 PM53.2 °F28.0 °F38 %29.77 in10.0 miWSW (250°)15.0 mph19.6 mphClear
2:15 PM53.2 °F27.1 °F37 %29.76 in10.0 miWSW (240°)13.8 mph18.4 mphClear
2:35 PM53.6 °F27.5 °F37 %29.75 in10.0 miWSW (250°)13.8 mph20.7 mphClear
2:55 PM53.6 °F27.1 °F36 %29.73 in10.0 miWSW (250°)11.5 mph18.4 mphClear
3:15 PM54.3 °F27.3 °F35 %29.73 in10.0 miWSW (240°)10.4 mph20.7 mphClear
3:35 PM54.1 °F26.6 °F35 %29.73 in10.0 miWSW (240°)16.1 mphClear
3:55 PM52.9 °F25.9 °F35 %29.73 in10.0 miWSW (240°)12.7 mph20.7 mphClear
4:15 PM52.3 °F26.4 °F37 %29.73 in10.0 miWSW (240°)13.8 mph19.6 mphClear
4:35 PM52.3 °F25.9 °F36 %29.72 in10.0 miWSW (250°)9.2 mph19.6 mphScattered Clouds
4:55 PM53.1 °F26.2 °F35 %29.72 in10.0 miWSW (250°)11.5 mph18.4 mphScattered Clouds
5:15 PM50.5 °F26.8 °F40 %29.73 in10.0 miSW (230°)9.2 mphScattered Clouds
5:35 PM49.6 °F28.0 °F43 %29.72 in10.0 miSW (230°)9.2 mphOvercast
5:55 PM48.9 °F28.4 °F45 %29.72 in10.0 miSW (230°)8.1 mphOvercast
6:15 PM47.3 °F29.1 °F49 %29.73 in10.0 miWSW (250°)6.9 mphOvercast
6:35 PM44.4 °F29.3 °F55 %29.73 in10.0 miWest (260°)9.2 mphScattered Clouds
6:55 PM43.9 °F28.6 °F55 %29.73 in10.0 miWest (270°)9.2 mphClear
7:15 PM43.2 °F28.4 °F56 %29.74 in10.0 miWest (260°)10.4 mphClear
7:35 PM40.5 °F27.9 °F61 %29.74 in10.0 miWest (260°)9.2 mphClear
7:55 PM41.0 °F28.4 °F61 %29.74 in10.0 miWest (260°)10.4 mphMostly Cloudy
8:15 PM40.8 °F28.2 °F61 %29.74 in10.0 miWSW (250°)9.2 mphMostly Cloudy
8:35 PM41.0 °F28.8 °F62 %29.74 in10.0 miWest (260°)12.7 mphMostly Cloudy
8:55 PM40.3 °F29.1 °F64 %29.74 in10.0 miWest (260°)13.8 mphScattered Clouds
9:15 PM41.9 °F29.7 °F62 %29.75 in10.0 miWest (270°)15.0 mphMostly Cloudy
9:35 PM41.5 °F29.7 °F63 %29.76 in10.0 miWest (270°)12.7 mphMostly Cloudy
9:55 PM42.1 °F30.0 °F62 %29.76 in10.0 miWest (270°)11.5 mphMostly Cloudy
10:15 PM41.4 °F29.8 °F64 %29.77 in10.0 miWest (270°)11.5 mphScattered Clouds
10:35 PM42.8 °F30.2 °F61 %29.77 in10.0 miWest (280°)11.5 mphMostly Cloudy
10:55 PM41.9 °F30.0 °F63 %29.77 in10.0 miWest (280°)10.4 mphOvercast
11:15 PM41.0 °F30.2 °F65 %29.78 in10.0 miWNW (300°)10.4 mphScattered Clouds
11:35 PM41.4 °F30.2 °F65 %29.78 in10.0 miWNW (300°)12.7 mphScattered Clouds
11:55 PM41.4 °F30.2 °F65 %29.79 in10.0 miWNW (290°)16.1 mph19.6 mphClear
Hourly data recorded from KAHQ, located miles away from Yutan, Nebraska







STORIES FROM OUR PARTNERS